Time,TemperatureF,DewpointF,PressureIn,WindDirection,WindDirectionDegrees,WindSpeedMPH,WindSpeedGustMPH,Humidity,HourlyPrecipIn,Conditions,Clouds,dailyrainin,SoftwareType,DateUTC
2013-04-03 00:00:00,56.3,15.8,30.16,ENE,60,0.0,4.0,20,0.00,,,0.00,meteohub,2013-04-03 04:00:00,
2013-04-03 00:01:00,56.3,15.8,30.16,ENE,60,0.0,4.0,20,0.00,,,0.00,meteohub,2013-04-03 04:01:00,
2013-04-03 00:06:00,56.3,15.8,30.16,ENE,60,0.0,4.0,20,0.00,,,0.00,meteohub,2013-04-03 04:06:00,
2013-04-03 00:11:00,56.3,15.8,30.16,East,90,0.0,3.0,20,0.00,,,0.00,meteohub,2013-04-03 04:11:00,
2013-04-03 00:16:00,56.1,15.6,30.16,NE,54,3.0,4.0,20,0.00,,,0.00,meteohub,2013-04-03 04:16:00,
2013-04-03 00:21:00,56.1,15.6,30.16,ENE,60,4.0,4.0,20,0.00,,,0.00,meteohub,2013-04-03 04:21:00,
2013-04-03 00:27:00,56.1,15.6,30.16,NE,55,3.0,4.0,20,0.00,,,0.00,meteohub,2013-04-03 04:27:00,
2013-04-03 00:32:00,56.1,15.6,30.19,East,93,0.0,5.0,20,0.00,,,0.00,meteohub,2013-04-03 04:32:00,
2013-04-03 00:37:00,55.9,15.4,30.19,ESE,107,0.0,5.0,20,0.00,,,0.00,meteohub,2013-04-03 04:37:00,
2013-04-03 00:42:00,55.9,15.4,30.19,ENE,76,4.0,5.0,20,0.00,,,0.00,meteohub,2013-04-03 04:42:00,
2013-04-03 00:47:00,55.8,15.3,30.19,East,89,2.0,5.0,20,0.00,,,0.00,meteohub,2013-04-03 04:47:00,
2013-04-03 00:52:00,55.8,15.3,30.19,ESE,123,0.0,5.0,20,0.00,,,0.00,meteohub,2013-04-03 04:52:00,
2013-04-03 00:57:00,55.6,15.1,30.19,ESE,123,0.0,5.0,20,0.00,,,0.00,meteohub,2013-04-03 04:57:00,
2013-04-03 01:02:00,55.4,14.9,30.19,ESE,105,3.0,5.0,20,0.00,,,0.00,meteohub,2013-04-03 05:02:00,
2013-04-03 01:07:00,55.4,14.9,30.19,ESE,119,4.0,4.0,20,0.00,,,0.00,meteohub,2013-04-03 05:07:00,
2013-04-03 01:12:00,55.2,14.9,30.19,East,82,3.0,4.0,20,0.00,,,0.00,meteohub,2013-04-03 05:12:00,
2013-04-03 01:18:00,55.0,14.7,30.19,ESE,112,4.0,4.0,20,0.00,,,0.00,meteohub,2013-04-03 05:18:00,
2013-04-03 01:23:00,55.0,14.7,30.19,ESE,102,5.0,5.0,20,0.00,,,0.00,meteohub,2013-04-03 05:23:00,
2013-04-03 01:28:00,54.9,14.5,30.19,SE,133,4.0,7.0,20,0.00,,,0.00,meteohub,2013-04-03 05:28:00,
2013-04-03 01:33:00,54.7,14.4,30.19,East,94,3.0,7.0,20,0.00,,,0.00,meteohub,2013-04-03 05:33:00,
2013-04-03 01:38:00,54.5,14.2,30.19,East,93,3.0,7.0,20,0.00,,,0.00,meteohub,2013-04-03 05:38:00,
2013-04-03 01:43:00,54.5,14.2,30.19,East,88,4.0,6.0,20,0.00,,,0.00,meteohub,2013-04-03 05:43:00,
2013-04-03 01:48:00,54.3,14.0,30.19,ESE,116,3.0,6.0,20,0.00,,,0.00,meteohub,2013-04-03 05:48:00,
2013-04-03 01:53:00,54.3,14.0,30.19,East,95,4.0,6.0,20,0.00,,,0.00,meteohub,2013-04-03 05:53:00,
2013-04-03 01:58:00,54.1,14.0,30.19,ESE,108,2.0,6.0,20,0.00,,,0.00,meteohub,2013-04-03 05:58:00,
2013-04-03 02:03:00,54.0,13.8,30.19,East,84,4.0,5.0,20,0.00,,,0.00,meteohub,2013-04-03 06:03:00,
2013-04-03 02:08:00,54.0,13.8,30.20,ENE,62,3.0,5.0,20,0.00,,,0.00,meteohub,2013-04-03 06:08:00,
2013-04-03 02:13:00,53.8,13.6,30.20,ESE,102,4.0,6.0,20,0.00,,,0.00,meteohub,2013-04-03 06:13:00,
2013-04-03 02:19:00,53.6,13.5,30.20,ESE,109,5.0,7.0,20,0.00,,,0.00,meteohub,2013-04-03 06:19:00,
2013-04-03 02:24:00,53.6,13.5,30.20,ESE,104,3.0,7.0,20,0.00,,,0.00,meteohub,2013-04-03 06:24:00,
2013-04-03 02:29:00,53.4,14.4,30.20,ESE,111,3.0,7.0,21,0.00,,,0.00,meteohub,2013-04-03 06:29:00,
2013-04-03 02:34:00,53.2,14.4,30.20,East,98,4.0,7.0,21,0.00,,,0.00,meteohub,2013-04-03 06:34:00,
2013-04-03 02:39:00,53.2,14.4,30.20,ENE,64,4.0,7.0,21,0.00,,,0.00,meteohub,2013-04-03 06:39:00,
2013-04-03 02:44:00,53.1,14.2,30.20,East,95,5.0,7.0,21,0.00,,,0.00,meteohub,2013-04-03 06:44:00,
2013-04-03 02:49:00,53.1,14.2,30.20,ESE,102,5.0,6.0,21,0.00,,,0.00,meteohub,2013-04-03 06:49:00,
2013-04-03 02:54:00,53.1,14.2,30.20,East,92,0.0,6.0,21,0.00,,,0.00,meteohub,2013-04-03 06:54:00,
2013-04-03 02:59:00,52.9,14.0,30.20,ENE,68,4.0,8.0,21,0.00,,,0.00,meteohub,2013-04-03 06:59:00,
2013-04-03 03:04:00,52.7,13.8,30.20,NE,53,3.0,9.0,21,0.00,,,0.00,meteohub,2013-04-03 07:04:00,
2013-04-03 03:09:00,52.7,13.8,30.20,East,97,3.0,9.0,21,0.00,,,0.00,meteohub,2013-04-03 07:09:00,
2013-04-03 03:14:00,52.7,13.8,30.20,ENE,70,3.0,9.0,21,0.00,,,0.00,meteohub,2013-04-03 07:14:00,
2013-04-03 03:19:00,52.5,13.6,30.20,East,82,4.0,8.0,21,0.00,,,0.00,meteohub,2013-04-03 07:19:00,
2013-04-03 03:24:00,52.5,13.6,30.20,ENE,68,6.0,8.0,21,0.00,,,0.00,meteohub,2013-04-03 07:24:00,
2013-04-03 03:29:00,52.3,13.5,30.20,ESE,115,4.0,6.0,21,0.00,,,0.00,meteohub,2013-04-03 07:29:00,
2013-04-03 03:34:00,52.3,13.5,30.20,East,87,4.0,6.0,21,0.00,,,0.00,meteohub,2013-04-03 07:34:00,
2013-04-03 03:39:00,52.2,13.5,30.20,ESE,121,4.0,6.0,21,0.00,,,0.00,meteohub,2013-04-03 07:39:00,
2013-04-03 03:44:00,52.2,13.5,30.20,ENE,65,5.0,6.0,21,0.00,,,0.00,meteohub,2013-04-03 07:44:00,
2013-04-03 03:49:00,52.0,13.3,30.20,ESE,110,5.0,8.0,21,0.00,,,0.00,meteohub,2013-04-03 07:49:00,
2013-04-03 03:54:00,52.0,13.3,30.20,East,86,4.0,8.0,21,0.00,,,0.00,meteohub,2013-04-03 07:54:00,
2013-04-03 03:59:00,52.0,13.3,30.20,East,97,3.0,7.0,21,0.00,,,0.00,meteohub,2013-04-03 07:59:00,
2013-04-03 04:04:00,51.8,13.1,30.20,East,93,4.0,7.0,21,0.00,,,0.00,meteohub,2013-04-03 08:04:00,
2013-04-03 04:09:00,51.8,13.1,30.20,East,97,4.0,7.0,21,0.00,,,0.00,meteohub,2013-04-03 08:09:00,
2013-04-03 04:14:00,51.6,12.9,30.20,ESE,105,8.0,8.0,21,0.00,,,0.00,meteohub,2013-04-03 08:14:00,
2013-04-03 04:19:00,51.6,12.9,30.20,East,89,5.0,8.0,21,0.00,,,0.00,meteohub,2013-04-03 08:19:00,
2013-04-03 04:24:00,51.4,12.7,30.20,ENE,69,6.0,8.0,21,0.00,,,0.00,meteohub,2013-04-03 08:24:00,
2013-04-03 04:30:00,51.4,12.7,30.20,East,82,2.0,9.0,21,0.00,,,0.00,meteohub,2013-04-03 08:30:00,
2013-04-03 04:35:00,51.3,12.6,30.20,East,97,4.0,9.0,21,0.00,,,0.00,meteohub,2013-04-03 08:35:00,
2013-04-03 04:40:00,51.1,12.6,30.20,ESE,116,0.0,9.0,21,0.00,,,0.00,meteohub,2013-04-03 08:40:00,
2013-04-03 04:45:00,51.1,12.6,30.20,SE,128,8.0,8.0,21,0.00,,,0.00,meteohub,2013-04-03 08:45:00,
2013-04-03 04:50:00,50.9,12.4,30.20,ESE,104,3.0,8.0,21,0.00,,,0.00,meteohub,2013-04-03 08:50:00,
2013-04-03 04:55:00,50.9,12.4,30.20,East,100,3.0,8.0,21,0.00,,,0.00,meteohub,2013-04-03 08:55:00,
2013-04-03 05:00:00,50.9,12.4,30.20,East,99,0.0,8.0,21,0.00,,,0.00,meteohub,2013-04-03 09:00:00,
2013-04-03 05:05:00,50.7,12.2,30.20,ESE,102,5.0,6.0,21,0.00,,,0.00,meteohub,2013-04-03 09:05:00,
2013-04-03 05:10:00,50.7,12.2,30.20,ESE,113,4.0,6.0,21,0.00,,,0.00,meteohub,2013-04-03 09:10:00,
2013-04-03 05:15:00,50.5,12.0,30.20,SE,135,4.0,6.0,21,0.00,,,0.00,meteohub,2013-04-03 09:15:00,
2013-04-03 05:20:00,50.5,12.0,30.20,East,80,5.0,8.0,21,0.00,,,0.00,meteohub,2013-04-03 09:20:00,
2013-04-03 05:25:00,50.4,11.8,30.20,ESE,119,6.0,8.0,21,0.00,,,0.00,meteohub,2013-04-03 09:25:00,
2013-04-03 05:30:00,50.4,11.8,30.20,ESE,110,5.0,8.0,21,0.00,,,0.00,meteohub,2013-04-03 09:30:00,
2013-04-03 05:35:00,50.2,11.7,30.20,ESE,121,4.0,8.0,21,0.00,,,0.00,meteohub,2013-04-03 09:35:00,
2013-04-03 05:40:00,50.2,11.7,30.20,East,90,3.0,8.0,21,0.00,,,0.00,meteohub,2013-04-03 09:40:00,
2013-04-03 05:45:00,50.2,11.7,30.24,SE,139,0.0,5.0,21,0.00,,,0.00,meteohub,2013-04-03 09:45:00,
2013-04-03 05:50:00,50.2,11.7,30.24,ESE,108,0.0,4.0,21,0.00,,,0.00,meteohub,2013-04-03 09:50:00,
2013-04-03 05:55:00,50.2,11.7,30.24,ESE,120,0.0,4.0,21,0.00,,,0.00,meteohub,2013-04-03 09:55:00,
2013-04-03 06:00:00,50.0,11.7,30.24,ESE,110,0.0,4.0,21,0.00,,,0.00,meteohub,2013-04-03 10:00:00,
2013-04-03 06:05:00,50.0,11.7,30.24,ESE,108,5.0,5.0,21,0.00,,,0.00,meteohub,2013-04-03 10:05:00,
2013-04-03 06:10:00,50.0,11.7,30.24,ESE,110,0.0,5.0,21,0.00,,,0.00,meteohub,2013-04-03 10:10:00,
2013-04-03 06:15:00,49.8,11.5,30.24,ESE,108,2.0,6.0,21,0.00,,,0.00,meteohub,2013-04-03 10:15:00,
2013-04-03 06:21:00,49.8,14.5,30.24,SE,141,0.0,6.0,24,0.00,,,0.00,meteohub,2013-04-03 10:21:00,
2013-04-03 06:26:00,49.8,14.5,30.24,SSE,153,0.0,5.0,24,0.00,,,0.00,meteohub,2013-04-03 10:26:00,
2013-04-03 06:31:00,49.8,14.5,30.24,SE,140,5.0,6.0,24,0.00,,,0.00,meteohub,2013-04-03 10:31:00,
2013-04-03 06:36:00,49.6,14.4,30.24,ESE,118,3.0,6.0,24,0.00,,,0.00,meteohub,2013-04-03 10:36:00,
2013-04-03 06:41:00,49.6,14.4,30.24,East,86,3.0,6.0,24,0.00,,,0.00,meteohub,2013-04-03 10:41:00,
2013-04-03 06:46:00,49.6,14.4,30.24,ENE,72,3.0,6.0,24,0.00,,,0.00,meteohub,2013-04-03 10:46:00,
2013-04-03 06:51:00,49.5,14.2,30.24,SE,140,0.0,6.0,24,0.00,,,0.00,meteohub,2013-04-03 10:51:00,
2013-04-03 06:56:00,49.3,14.0,30.24,East,86,3.0,5.0,24,0.00,,,0.00,meteohub,2013-04-03 10:56:00,
2013-04-03 07:01:00,49.1,13.8,30.24,East,95,0.0,5.0,24,0.00,,,0.00,meteohub,2013-04-03 11:01:00,
2013-04-03 07:07:00,49.1,13.8,30.24,SSE,166,3.0,6.0,24,0.00,,,0.00,meteohub,2013-04-03 11:07:00,
2013-04-03 07:12:00,48.9,10.8,30.24,SE,139,3.0,6.0,21,0.00,,,0.00,meteohub,2013-04-03 11:12:00,
2013-04-03 07:17:00,48.7,10.6,30.27,SE,124,4.0,6.0,21,0.00,,,0.00,meteohub,2013-04-03 11:17:00,
2013-04-03 07:22:00,48.7,10.6,30.27,South,173,4.0,6.0,21,0.00,,,0.00,meteohub,2013-04-03 11:22:00,
2013-04-03 07:27:00,49.1,10.8,30.27,SSE,165,3.0,6.0,21,0.00,,,0.00,meteohub,2013-04-03 11:27:00,
2013-04-03 07:32:00,49.1,10.8,30.27,SE,141,3.0,6.0,21,0.00,,,0.00,meteohub,2013-04-03 11:32:00,
2013-04-03 07:37:00,49.1,10.8,30.27,SSE,149,3.0,5.0,21,0.00,,,0.00,meteohub,2013-04-03 11:37:00,
2013-04-03 07:42:00,49.1,10.8,30.30,East,91,5.0,5.0,21,0.00,,,0.00,meteohub,2013-04-03 11:42:00,
2013-04-03 07:47:00,49.1,10.8,30.30,ESE,103,4.0,8.0,21,0.00,,,0.00,meteohub,2013-04-03 11:47:00,
2013-04-03 07:52:00,49.1,10.8,30.30,ESE,113,9.0,9.0,21,0.00,,,0.00,meteohub,2013-04-03 11:52:00,
2013-04-03 07:57:00,49.3,10.9,30.30,ESE,118,4.0,11.0,21,0.00,,,0.00,meteohub,2013-04-03 11:57:00,
2013-04-03 08:02:00,49.3,10.9,30.30,East,82,4.0,11.0,21,0.00,,,0.00,meteohub,2013-04-03 12:02:00,
2013-04-03 08:07:00,49.3,10.9,30.30,ENE,72,3.0,11.0,21,0.00,,,0.00,meteohub,2013-04-03 12:07:00,
2013-04-03 08:15:00,49.3,10.9,30.30,ENE,67,6.0,11.0,21,0.00,,,0.00,meteohub,2013-04-03 12:15:00,
2013-04-03 08:20:00,49.3,10.9,30.30,SSE,154,8.0,10.0,21,0.00,,,0.00,meteohub,2013-04-03 12:20:00,
2013-04-03 08:25:00,49.3,10.9,30.30,East,86,4.0,10.0,21,0.00,,,0.00,meteohub,2013-04-03 12:25:00,
2013-04-03 08:30:00,49.3,10.9,30.30,ESE,108,13.0,13.0,21,0.00,,,0.00,meteohub,2013-04-03 12:30:00,
2013-04-03 08:35:00,49.3,10.9,30.30,SSE,151,13.0,13.0,21,0.00,,,0.00,meteohub,2013-04-03 12:35:00,
2013-04-03 08:40:00,49.5,11.1,30.30,SE,127,13.0,13.0,21,0.00,,,0.00,meteohub,2013-04-03 12:40:00,
2013-04-03 08:45:00,49.8,11.5,30.33,SE,126,6.0,13.0,21,0.00,,,0.00,meteohub,2013-04-03 12:45:00,
2013-04-03 08:50:00,50.9,12.4,30.33,ENE,57,9.0,13.0,21,0.00,,,0.00,meteohub,2013-04-03 12:50:00,
2013-04-03 08:55:00,54.3,14.0,30.33,East,100,5.0,13.0,20,0.00,,,0.00,meteohub,2013-04-03 12:55:00,
2013-04-03 09:00:00,56.5,15.8,30.30,East,82,10.0,13.0,20,0.00,,,0.00,meteohub,2013-04-03 13:00:00,
2013-04-03 09:05:00,57.0,16.3,30.30,ESE,108,8.0,12.0,20,0.00,,,0.00,meteohub,2013-04-03 13:05:00,
2013-04-03 09:10:00,57.2,15.3,30.30,East,98,6.0,12.0,19,0.00,,,0.00,meteohub,2013-04-03 13:10:00,
2013-04-03 09:15:00,57.7,15.8,30.30,ESE,114,6.0,12.0,19,0.00,,,0.00,meteohub,2013-04-03 13:15:00,
2013-04-03 09:20:00,58.1,16.0,30.30,SSE,166,6.0,11.0,19,0.00,,,0.00,meteohub,2013-04-03 13:20:00,
2013-04-03 09:25:00,58.1,16.0,30.30,South,171,13.0,13.0,19,0.00,,,0.00,meteohub,2013-04-03 13:25:00,
2013-04-03 09:30:00,57.6,13.1,30.30,SSE,157,10.0,13.0,17,0.00,,,0.00,meteohub,2013-04-03 13:30:00,
2013-04-03 09:35:00,57.0,12.6,30.30,SSE,156,6.0,15.0,17,0.00,,,0.00,meteohub,2013-04-03 13:35:00,
2013-04-03 09:40:00,57.7,13.3,30.30,SSE,151,8.0,15.0,17,0.00,,,0.00,meteohub,2013-04-03 13:40:00,
2013-04-03 09:45:00,58.3,13.6,30.30,SSE,147,6.0,15.0,17,0.00,,,0.00,meteohub,2013-04-03 13:45:00,
2013-04-03 09:50:00,58.5,13.8,30.30,SE,139,11.0,13.0,17,0.00,,,0.00,meteohub,2013-04-03 13:50:00,
2013-04-03 09:55:00,59.0,14.2,30.30,ESE,108,6.0,13.0,17,0.00,,,0.00,meteohub,2013-04-03 13:55:00,
2013-04-03 10:00:00,58.5,13.8,30.33,SE,145,8.0,13.0,17,0.00,,,0.00,meteohub,2013-04-03 14:00:00,
2013-04-03 10:05:00,58.5,13.8,30.33,ESE,114,6.0,13.0,17,0.00,,,0.00,meteohub,2013-04-03 14:05:00,
2013-04-03 10:10:00,58.1,13.5,30.32,ESE,117,12.0,13.0,17,0.00,,,0.00,meteohub,2013-04-03 14:10:00,
2013-04-03 10:15:00,57.7,13.3,30.32,SE,132,5.0,13.0,17,0.00,,,0.00,meteohub,2013-04-03 14:15:00,
2013-04-03 10:21:00,57.9,13.3,30.32,SE,138,8.0,12.0,17,0.00,,,0.00,meteohub,2013-04-03 14:21:00,
2013-04-03 10:26:00,57.9,13.3,30.32,SSE,168,6.0,12.0,17,0.00,,,0.00,meteohub,2013-04-03 14:26:00,
2013-04-03 10:31:00,56.8,12.4,30.32,SSE,167,10.0,11.0,17,0.00,,,0.00,meteohub,2013-04-03 14:31:00,
2013-04-03 10:36:00,55.9,11.7,30.32,South,174,9.0,15.0,17,0.00,,,0.00,meteohub,2013-04-03 14:36:00,
2013-04-03 10:41:00,55.6,11.5,30.32,SSE,157,7.0,15.0,17,0.00,,,0.00,meteohub,2013-04-03 14:41:00,
2013-04-03 10:46:00,55.4,11.3,30.32,South,169,8.0,15.0,17,0.00,,,0.00,meteohub,2013-04-03 14:46:00,
2013-04-03 10:51:00,55.6,11.5,30.32,SSE,154,13.0,13.0,17,0.00,,,0.00,meteohub,2013-04-03 14:51:00,
2013-04-03 10:56:00,55.6,11.5,30.32,SE,145,8.0,13.0,17,0.00,,,0.00,meteohub,2013-04-03 14:56:00,
2013-04-03 11:01:00,55.6,11.5,30.32,SSE,154,11.0,13.0,17,0.00,,,0.00,meteohub,2013-04-03 15:01:00,
2013-04-03 11:07:00,55.4,11.3,30.32,South,183,8.0,13.0,17,0.00,,,0.00,meteohub,2013-04-03 15:07:00,
2013-04-03 11:11:00,55.4,11.3,30.32,SSE,168,9.0,13.0,17,0.00,,,0.00,meteohub,2013-04-03 15:11:00,
2013-04-03 11:17:00,55.6,11.5,30.32,SE,142,6.0,11.0,17,0.00,,,0.00,meteohub,2013-04-03 15:17:00,
2013-04-03 11:22:00,55.6,11.5,30.32,East,89,6.0,11.0,17,0.00,,,0.00,meteohub,2013-04-03 15:22:00,
2013-04-03 11:27:00,55.6,11.5,30.32,NE,49,8.0,11.0,17,0.00,,,0.00,meteohub,2013-04-03 15:27:00,
2013-04-03 11:32:00,55.8,11.7,30.32,East,96,6.0,11.0,17,0.00,,,0.00,meteohub,2013-04-03 15:32:00,
2013-04-03 11:37:00,56.1,11.8,30.32,ESE,106,3.0,10.0,17,0.00,,,0.00,meteohub,2013-04-03 15:37:00,
2013-04-03 11:42:00,56.5,12.2,30.32,East,97,6.0,10.0,17,0.00,,,0.00,meteohub,2013-04-03 15:42:00,
2013-04-03 11:47:00,56.7,12.4,30.32,ESE,115,0.0,10.0,17,0.00,,,0.00,meteohub,2013-04-03 15:47:00,
2013-04-03 11:52:00,57.0,12.6,30.32,South,189,8.0,9.0,17,0.00,,,0.00,meteohub,2013-04-03 15:52:00,
2013-04-03 11:57:00,57.2,12.7,30.32,SSE,157,4.0,13.0,17,0.00,,,0.00,meteohub,2013-04-03 15:57:00,
2013-04-03 12:02:00,57.2,12.7,30.32,SE,140,3.0,13.0,17,0.00,,,0.00,meteohub,2013-04-03 16:02:00,
2013-04-03 12:07:00,57.2,12.7,30.32,SSE,158,7.0,13.0,17,0.00,,,0.00,meteohub,2013-04-03 16:07:00,
2013-04-03 12:12:00,57.2,12.7,30.32,SE,130,3.0,11.0,17,0.00,,,0.00,meteohub,2013-04-03 16:12:00,
2013-04-03 12:17:00,57.0,12.6,30.32,East,88,6.0,11.0,17,0.00,,,0.00,meteohub,2013-04-03 16:17:00,
2013-04-03 12:22:00,57.0,12.6,30.32,SE,141,4.0,11.0,17,0.00,,,0.00,meteohub,2013-04-03 16:22:00,
2013-04-03 12:27:00,57.2,12.7,30.32,ESE,112,8.0,11.0,17,0.00,,,0.00,meteohub,2013-04-03 16:27:00,
2013-04-03 12:32:00,57.2,12.7,30.32,South,181,6.0,11.0,17,0.00,,,0.00,meteohub,2013-04-03 16:32:00,
2013-04-03 12:37:00,57.2,12.7,30.32,SSW,210,6.0,9.0,17,0.00,,,0.00,meteohub,2013-04-03 16:37:00,
2013-04-03 12:42:00,57.4,12.9,30.28,SE,141,4.0,11.0,17,0.00,,,0.00,meteohub,2013-04-03 16:42:00,
2013-04-03 12:48:00,57.7,13.3,30.28,SSE,155,4.0,11.0,17,0.00,,,0.00,meteohub,2013-04-03 16:48:00,
2013-04-03 12:53:00,57.7,13.3,30.28,SE,128,3.0,8.0,17,0.00,,,0.00,meteohub,2013-04-03 16:53:00,
2013-04-03 12:58:00,57.9,13.3,30.28,SSE,150,6.0,11.0,17,0.00,,,0.00,meteohub,2013-04-03 16:58:00,
2013-04-03 13:03:00,58.1,16.0,30.28,SE,138,6.0,11.0,19,0.00,,,0.00,meteohub,2013-04-03 17:03:00,
2013-04-03 13:08:00,58.1,16.0,30.28,SSE,160,8.0,11.0,19,0.00,,,0.00,meteohub,2013-04-03 17:08:00,
2013-04-03 13:09:00,58.3,16.2,30.28,SSE,167,9.0,11.0,19,0.00,,,0.00,meteohub,2013-04-03 17:09:00,
2013-04-03 13:17:00,58.5,13.8,30.28,SSE,157,4.0,11.0,17,0.00,,,0.00,meteohub,2013-04-03 17:17:00,
2013-04-03 13:24:00,58.6,16.5,30.28,SSE,152,4.0,11.0,19,0.00,,,0.00,meteohub,2013-04-03 17:24:00,
2013-04-03 13:29:00,58.6,16.5,30.28,SSE,155,3.0,9.0,19,0.00,,,0.00,meteohub,2013-04-03 17:29:00,
2013-04-03 13:34:00,58.6,14.0,30.28,ESE,104,5.0,8.0,17,0.00,,,0.00,meteohub,2013-04-03 17:34:00,
2013-04-03 13:39:00,58.6,14.0,30.28,SE,135,5.0,10.0,17,0.00,,,0.00,meteohub,2013-04-03 17:39:00,
2013-04-03 13:45:00,58.6,16.5,30.28,SSE,155,3.0,10.0,19,0.00,,,0.00,meteohub,2013-04-03 17:45:00,
2013-04-03 13:50:00,59.0,16.7,30.28,South,187,4.0,8.0,19,0.00,,,0.00,meteohub,2013-04-03 17:50:00,
2013-04-03 13:55:00,59.2,16.9,30.28,SSE,153,5.0,8.0,19,0.00,,,0.00,meteohub,2013-04-03 17:55:00,
2013-04-03 14:00:00,59.4,17.1,30.28,SE,139,6.0,8.0,19,0.00,,,0.00,meteohub,2013-04-03 18:00:00,
2013-04-03 14:05:00,59.2,16.9,30.28,ESE,108,5.0,8.0,19,0.00,,,0.00,meteohub,2013-04-03 18:05:00,
2013-04-03 14:11:00,59.5,17.2,30.28,SSE,151,4.0,8.0,19,0.00,,,0.00,meteohub,2013-04-03 18:11:00,
2013-04-03 14:16:00,59.5,17.2,30.25,SE,137,2.0,8.0,19,0.00,,,0.00,meteohub,2013-04-03 18:16:00,
2013-04-03 14:21:00,59.5,17.2,30.25,SSW,203,6.0,8.0,19,0.00,,,0.00,meteohub,2013-04-03 18:21:00,
2013-04-03 14:26:00,59.4,17.1,30.25,SSE,166,6.0,8.0,19,0.00,,,0.00,meteohub,2013-04-03 18:26:00,
2013-04-03 14:31:00,59.7,17.4,30.25,SSW,203,6.0,8.0,19,0.00,,,0.00,meteohub,2013-04-03 18:31:00,
2013-04-03 14:36:00,59.7,17.4,30.25,ESE,119,6.0,10.0,19,0.00,,,0.00,meteohub,2013-04-03 18:36:00,
2013-04-03 14:42:00,59.5,17.2,30.25,South,184,4.0,10.0,19,0.00,,,0.00,meteohub,2013-04-03 18:42:00,
2013-04-03 14:47:00,59.9,17.6,30.25,North,9,6.0,10.0,19,0.00,,,0.00,meteohub,2013-04-03 18:47:00,
2013-04-03 14:52:00,59.9,17.6,30.25,East,93,4.0,8.0,19,0.00,,,0.00,meteohub,2013-04-03 18:52:00,
2013-04-03 14:57:00,60.1,17.6,30.25,NE,36,5.0,8.0,19,0.00,,,0.00,meteohub,2013-04-03 18:57:00,
2013-04-03 15:02:00,60.1,17.6,30.25,North,349,0.0,8.0,19,0.00,,,0.00,meteohub,2013-04-03 19:02:00,
2013-04-03 15:07:00,60.3,17.8,30.25,South,185,3.0,8.0,19,0.00,,,0.00,meteohub,2013-04-03 19:07:00,
2013-04-03 15:12:00,60.1,17.6,30.25,SE,138,4.0,8.0,19,0.00,,,0.00,meteohub,2013-04-03 19:12:00,
2013-04-03 15:17:00,60.1,17.6,30.25,SE,142,6.0,9.0,19,0.00,,,0.00,meteohub,2013-04-03 19:17:00,
2013-04-03 15:22:00,60.1,17.6,30.25,ENE,72,0.0,9.0,19,0.00,,,0.00,meteohub,2013-04-03 19:22:00,
2013-04-03 15:27:00,60.3,17.8,30.25,SSW,193,5.0,9.0,19,0.00,,,0.00,meteohub,2013-04-03 19:27:00,
2013-04-03 15:32:00,60.4,18.0,30.25,SE,133,3.0,6.0,19,0.00,,,0.00,meteohub,2013-04-03 19:32:00,
2013-04-03 15:37:00,60.3,17.8,30.25,ESE,120,4.0,6.0,19,0.00,,,0.00,meteohub,2013-04-03 19:37:00,
2013-04-03 15:42:00,60.3,17.8,30.25,South,175,0.0,6.0,19,0.00,,,0.00,meteohub,2013-04-03 19:42:00,
2013-04-03 15:47:00,60.3,17.8,30.25,SE,139,2.0,6.0,19,0.00,,,0.00,meteohub,2013-04-03 19:47:00,
2013-04-03 15:52:00,60.3,17.8,30.25,ESE,116,3.0,6.0,19,0.00,,,0.00,meteohub,2013-04-03 19:52:00,
2013-04-03 15:57:00,60.1,17.6,30.25,WSW,241,0.0,6.0,19,0.00,,,0.00,meteohub,2013-04-03 19:57:00,
2013-04-03 16:02:00,60.1,17.6,30.25,South,170,3.0,6.0,19,0.00,,,0.00,meteohub,2013-04-03 20:02:00,
2013-04-03 16:07:00,60.1,17.6,30.25,SW,222,0.0,6.0,19,0.00,,,0.00,meteohub,2013-04-03 20:07:00,
2013-04-03 16:13:00,60.3,17.8,30.25,SW,224,0.0,4.0,19,0.00,,,0.00,meteohub,2013-04-03 20:13:00,
2013-04-03 16:18:00,60.3,17.8,30.25,SSE,165,4.0,4.0,19,0.00,,,0.00,meteohub,2013-04-03 20:18:00,
2013-04-03 16:23:00,60.1,17.6,30.25,South,171,3.0,6.0,19,0.00,,,0.00,meteohub,2013-04-03 20:23:00,
2013-04-03 16:28:00,60.1,17.6,30.25,SE,143,0.0,6.0,19,0.00,,,0.00,meteohub,2013-04-03 20:28:00,
2013-04-03 16:33:00,60.1,17.6,30.25,South,190,3.0,6.0,19,0.00,,,0.00,meteohub,2013-04-03 20:33:00,
2013-04-03 16:38:00,60.1,17.6,30.25,South,176,2.0,5.0,19,0.00,,,0.00,meteohub,2013-04-03 20:38:00,
2013-04-03 16:43:00,60.1,17.6,30.25,ESE,106,3.0,4.0,19,0.00,,,0.00,meteohub,2013-04-03 20:43:00,
2013-04-03 16:48:00,60.1,17.6,30.25,South,175,5.0,5.0,19,0.00,,,0.00,meteohub,2013-04-03 20:48:00,
2013-04-03 16:53:00,60.1,17.6,30.25,SW,214,2.0,6.0,19,0.00,,,0.00,meteohub,2013-04-03 20:53:00,
2013-04-03 16:58:00,60.1,17.6,30.25,South,182,3.0,6.0,19,0.00,,,0.00,meteohub,2013-04-03 20:58:00,
2013-04-03 17:04:00,60.1,17.6,30.25,SW,226,0.0,6.0,19,0.00,,,0.00,meteohub,2013-04-03 21:04:00,
2013-04-03 17:09:00,60.1,17.6,30.25,SW,225,3.0,6.0,19,0.00,,,0.00,meteohub,2013-04-03 21:09:00,
2013-04-03 17:14:00,60.1,17.6,30.25,South,185,4.0,6.0,19,0.00,,,0.00,meteohub,2013-04-03 21:14:00,
2013-04-03 17:19:00,59.7,17.4,30.25,South,173,3.0,6.0,19,0.00,,,0.00,meteohub,2013-04-03 21:19:00,
2013-04-03 17:24:00,59.7,17.4,30.25,SSE,159,4.0,6.0,19,0.00,,,0.00,meteohub,2013-04-03 21:24:00,
2013-04-03 17:29:00,59.5,17.2,30.22,SSE,159,2.0,6.0,19,0.00,,,0.00,meteohub,2013-04-03 21:29:00,
2013-04-03 17:34:00,59.5,17.2,30.22,SSW,213,4.0,6.0,19,0.00,,,0.00,meteohub,2013-04-03 21:34:00,
2013-04-03 17:39:00,59.4,17.1,30.22,SSW,200,4.0,6.0,19,0.00,,,0.00,meteohub,2013-04-03 21:39:00,
2013-04-03 17:44:00,59.4,17.1,30.22,SE,128,5.0,6.0,19,0.00,,,0.00,meteohub,2013-04-03 21:44:00,
2013-04-03 17:49:00,59.2,16.9,30.22,South,182,3.0,6.0,19,0.00,,,0.00,meteohub,2013-04-03 21:49:00,
2013-04-03 17:54:00,59.2,16.9,30.22,ESE,106,0.0,6.0,19,0.00,,,0.00,meteohub,2013-04-03 21:54:00,
2013-04-03 17:59:00,59.0,16.7,30.22,SSE,147,0.0,6.0,19,0.00,,,0.00,meteohub,2013-04-03 21:59:00,
2013-04-03 18:04:00,58.8,16.7,30.22,ESE,114,5.0,6.0,19,0.00,,,0.00,meteohub,2013-04-03 22:04:00,
2013-04-03 18:09:00,58.8,16.7,30.22,SE,139,5.0,5.0,19,0.00,,,0.00,meteohub,2013-04-03 22:09:00,
2013-04-03 18:15:00,58.6,16.5,30.22,SSE,159,3.0,5.0,19,0.00,,,0.00,meteohub,2013-04-03 22:15:00,
2013-04-03 18:20:00,58.6,16.5,30.22,SSE,151,3.0,7.0,19,0.00,,,0.00,meteohub,2013-04-03 22:20:00,
2013-04-03 18:25:00,58.5,16.3,30.22,South,170,4.0,7.0,19,0.00,,,0.00,meteohub,2013-04-03 22:25:00,
2013-04-03 18:30:00,58.3,16.2,30.22,SSE,162,3.0,7.0,19,0.00,,,0.00,meteohub,2013-04-03 22:30:00,
2013-04-03 18:35:00,58.1,16.0,30.22,South,191,4.0,6.0,19,0.00,,,0.00,meteohub,2013-04-03 22:35:00,
2013-04-03 18:36:00,58.1,16.0,30.22,South,182,3.0,6.0,19,0.00,,,0.00,meteohub,2013-04-03 22:36:00,
2013-04-03 18:42:00,58.1,16.0,30.22,SSE,151,5.0,5.0,19,0.00,,,0.00,meteohub,2013-04-03 22:42:00,
2013-04-03 18:47:00,58.1,16.0,30.22,SSE,160,4.0,6.0,19,0.00,,,0.00,meteohub,2013-04-03 22:47:00,
2013-04-03 18:52:00,57.9,15.8,30.22,South,169,4.0,6.0,19,0.00,,,0.00,meteohub,2013-04-03 22:52:00,
2013-04-03 18:57:00,57.7,15.8,30.22,SSW,194,4.0,6.0,19,0.00,,,0.00,meteohub,2013-04-03 22:57:00,
2013-04-03 19:02:00,57.6,15.6,30.22,SSE,165,3.0,6.0,19,0.00,,,0.00,meteohub,2013-04-03 23:02:00,
2013-04-03 19:07:00,57.6,15.6,30.22,SW,214,6.0,6.0,19,0.00,,,0.00,meteohub,2013-04-03 23:07:00,
2013-04-03 19:12:00,57.4,15.4,30.22,SSE,166,4.0,6.0,19,0.00,,,0.00,meteohub,2013-04-03 23:12:00,
2013-04-03 19:17:00,57.2,15.3,30.22,South,182,3.0,6.0,19,0.00,,,0.00,meteohub,2013-04-03 23:17:00,
2013-04-03 19:22:00,57.2,15.3,30.22,South,172,3.0,6.0,19,0.00,,,0.00,meteohub,2013-04-03 23:22:00,
2013-04-03 19:27:00,57.0,16.3,30.22,SSW,194,3.0,5.0,20,0.00,,,0.00,meteohub,2013-04-03 23:27:00,
2013-04-03 19:32:00,56.8,16.2,30.22,South,181,3.0,5.0,20,0.00,,,0.00,meteohub,2013-04-03 23:32:00,
2013-04-03 19:37:00,56.8,16.2,30.22,South,181,4.0,5.0,20,0.00,,,0.00,meteohub,2013-04-03 23:37:00,
2013-04-03 19:42:00,56.7,16.0,30.22,SSE,167,3.0,5.0,20,0.00,,,0.00,meteohub,2013-04-03 23:42:00,
2013-04-03 19:47:00,56.7,16.0,30.25,South,182,3.0,5.0,20,0.00,,,0.00,meteohub,2013-04-03 23:47:00,
2013-04-03 19:52:00,56.5,15.8,30.25,South,171,3.0,5.0,20,0.00,,,0.00,meteohub,2013-04-03 23:52:00,
2013-04-03 19:57:00,56.3,15.8,30.25,South,175,3.0,5.0,20,0.00,,,0.00,meteohub,2013-04-03 23:57:00,
2013-04-03 20:02:00,56.3,15.8,30.25,South,187,2.0,6.0,20,0.00,,,0.00,meteohub,2013-04-04 00:02:00,
2013-04-03 20:07:00,56.1,15.6,30.25,South,182,3.0,6.0,20,0.00,,,0.00,meteohub,2013-04-04 00:07:00,
2013-04-03 20:12:00,55.9,15.4,30.25,SSW,205,2.0,5.0,20,0.00,,,0.00,meteohub,2013-04-04 00:12:00,
2013-04-03 20:18:00,55.9,15.4,30.25,WSW,246,0.0,5.0,20,0.00,,,0.00,meteohub,2013-04-04 00:18:00,
2013-04-03 20:23:00,55.8,15.3,30.25,SSW,211,3.0,5.0,20,0.00,,,0.00,meteohub,2013-04-04 00:23:00,
2013-04-03 20:28:00,55.6,15.1,30.25,South,181,0.0,4.0,20,0.00,,,0.00,meteohub,2013-04-04 00:28:00,
2013-04-03 20:34:00,55.6,15.1,30.25,South,181,0.0,4.0,20,0.00,,,0.00,meteohub,2013-04-04 00:34:00,
2013-04-03 20:39:00,55.4,14.9,30.25,South,181,0.0,4.0,20,0.00,,,0.00,meteohub,2013-04-04 00:39:00,
2013-04-03 20:44:00,55.2,14.9,30.25,South,181,0.0,2.0,20,0.00,,,0.00,meteohub,2013-04-04 00:44:00,
2013-04-03 20:49:00,55.0,14.7,30.25,South,181,0.0,0.0,20,0.00,,,0.00,meteohub,2013-04-04 00:49:00,
2013-04-03 20:55:00,55.0,14.7,30.25,South,181,0.0,0.0,20,0.00,,,0.00,meteohub,2013-04-04 00:55:00,
2013-04-03 21:00:00,54.9,14.5,30.28,South,181,0.0,0.0,20,0.00,,,0.00,meteohub,2013-04-04 01:00:00,
2013-04-03 21:05:00,54.9,14.5,30.28,South,181,0.0,0.0,20,0.00,,,0.00,meteohub,2013-04-04 01:05:00,
2013-04-03 21:10:00,54.7,14.4,30.28,South,181,0.0,0.0,20,0.00,,,0.00,meteohub,2013-04-04 01:10:00,
2013-04-03 21:15:00,54.7,17.6,30.29,South,181,0.0,0.0,23,0.00,,,0.00,meteohub,2013-04-04 01:15:00,
2013-04-03 21:20:00,54.7,14.4,30.29,South,181,0.0,0.0,20,0.00,,,0.00,meteohub,2013-04-04 01:20:00,
2013-04-03 21:25:00,54.5,17.4,30.29,South,181,0.0,2.0,23,0.00,,,0.00,meteohub,2013-04-04 01:25:00,
2013-04-03 21:30:00,54.5,17.4,30.29,South,181,0.0,2.0,23,0.00,,,0.00,meteohub,2013-04-04 01:30:00,
2013-04-03 21:35:00,54.3,17.2,30.29,South,181,0.0,2.0,23,0.00,,,0.00,meteohub,2013-04-04 01:35:00,
2013-04-03 21:41:00,54.1,19.0,30.29,South,184,0.0,0.0,25,0.00,,,0.00,meteohub,2013-04-04 01:41:00,
2013-04-03 21:46:00,54.1,19.0,30.29,South,184,0.0,3.0,25,0.00,,,0.00,meteohub,2013-04-04 01:46:00,
2013-04-03 21:51:00,54.0,19.8,30.29,South,184,0.0,3.0,26,0.00,,,0.00,meteohub,2013-04-04 01:51:00,
2013-04-03 21:57:00,53.8,19.8,30.29,South,184,0.0,0.0,26,0.00,,,0.00,meteohub,2013-04-04 01:57:00,
2013-04-03 22:02:00,53.8,19.8,30.29,South,184,0.0,0.0,26,0.00,,,0.00,meteohub,2013-04-04 02:02:00,
2013-04-03 22:07:00,53.6,19.6,30.29,South,184,0.0,0.0,26,0.00,,,0.00,meteohub,2013-04-04 02:07:00,
2013-04-03 22:12:00,53.6,19.6,30.29,South,184,0.0,0.0,26,0.00,,,0.00,meteohub,2013-04-04 02:12:00,
2013-04-03 22:17:00,53.6,20.5,30.32,South,184,0.0,0.0,27,0.00,,,0.00,meteohub,2013-04-04 02:17:00,
2013-04-03 22:22:00,53.6,19.6,30.32,South,185,0.0,0.0,26,0.00,,,0.00,meteohub,2013-04-04 02:22:00,
2013-04-03 22:27:00,53.6,19.6,30.32,South,184,0.0,0.0,26,0.00,,,0.00,meteohub,2013-04-04 02:27:00,
2013-04-03 22:32:00,53.4,20.3,30.29,South,184,0.0,0.0,27,0.00,,,0.00,meteohub,2013-04-04 02:32:00,
2013-04-03 22:37:00,53.4,21.2,30.29,South,184,0.0,0.0,28,0.00,,,0.00,meteohub,2013-04-04 02:37:00,
2013-04-03 22:44:00,53.4,21.9,30.29,South,184,0.0,0.0,29,0.00,,,0.00,meteohub,2013-04-04 02:44:00,
2013-04-03 22:49:00,53.2,21.7,30.32,South,184,0.0,0.0,29,0.00,,,0.00,meteohub,2013-04-04 02:49:00,
2013-04-03 22:54:00,53.2,22.6,30.32,South,184,0.0,0.0,30,0.00,,,0.00,meteohub,2013-04-04 02:54:00,
2013-04-03 22:59:00,53.2,22.6,30.32,South,184,0.0,0.0,30,0.00,,,0.00,meteohub,2013-04-04 02:59:00,
2013-04-03 23:04:00,53.1,23.2,30.32,South,184,0.0,0.0,31,0.00,,,0.00,meteohub,2013-04-04 03:04:00,
2013-04-03 23:09:00,53.1,23.2,30.32,South,185,0.0,0.0,31,0.00,,,0.00,meteohub,2013-04-04 03:09:00,
2013-04-03 23:14:00,53.1,23.2,30.32,South,184,0.0,0.0,31,0.00,,,0.00,meteohub,2013-04-04 03:14:00,
2013-04-03 23:19:00,53.2,21.7,30.32,South,184,0.0,0.0,29,0.00,,,0.00,meteohub,2013-04-04 03:19:00,
2013-04-03 23:24:00,53.2,21.7,30.32,SE,140,0.0,0.0,29,0.00,,,0.00,meteohub,2013-04-04 03:24:00,
2013-04-03 23:30:00,53.2,21.0,30.32,SE,133,2.0,3.0,28,0.00,,,0.00,meteohub,2013-04-04 03:30:00,
2013-04-03 23:35:00,53.1,20.8,30.32,SE,132,0.0,4.0,28,0.00,,,0.00,meteohub,2013-04-04 03:35:00,
2013-04-03 23:40:00,53.1,20.8,30.32,SE,132,0.0,4.0,28,0.00,,,0.00,meteohub,2013-04-04 03:40:00,
2013-04-03 23:47:00,53.1,19.9,30.32,SE,126,0.0,3.0,27,0.00,,,0.00,meteohub,2013-04-04 03:47:00,
2013-04-03 23:52:00,53.1,19.9,30.32,SE,140,0.0,3.0,27,0.00,,,0.00,meteohub,2013-04-04 03:52:00,
2013-04-03 23:57:00,53.1,19.9,30.32,SSE,151,0.0,3.0,27,0.00,,,0.00,meteohub,2013-04-04 03:57:00,